Mobile, AL

3:57 AM CDT on September 22, 2017 (GMT -0500)
Mobile Regional

Weather History for KMOB - November, 2014

Change the Weather History Date:

Tuesday, November 25, 2014

  Actual Average Record
Temperature  
Mean Temperature 55 °F 57 °F  
Max Temperature 62 °F 68 °F 84 °F (1973)
Min Temperature 47 °F 46 °F 22 °F (1950)
Degree Days  
Heating Degree Days 10 9  
Month to date heating degree days 289 154  
Since 1 July heating degree days 329 209  
Cooling Degree Days 0 1  
Month to date cooling degree days 8 37  
Year to date cooling degree days 2304 2499  
Growing Degree Days 4 (Base 50)    
Moisture  
Dew Point 34 °F    
Average Humidity 45    
Maximum Humidity 61    
Minimum Humidity 29    
Precipitation  
Precipitation 0.00 in 0.17 in 2.97 in (1944)
Month to date precipitation 1.48 4.30  
Year to date precipitation 67.44 60.26  
Snow  
Snow 0.00 in 0.00 in 0.00 in (2002)
Month to date snowfall 0.0 0.0  
Since 1 July snowfall 0.0 0.0  
Snow Depth 0.00 in    
Sea Level Pressure  
Sea Level Pressure 30.11 in    
Wind  
Wind Speed 11 mph (North)    
Max Wind Speed 20 mph    
Max Gust Speed 25 mph    
Visibility 10 miles    
Events      
T = Trace of Precipitation, MM = Missing Value Source: NWS Daily Summary

Daily Weather History Graph

Daily Weather History Graph

Search for Another Location

Airport or City:

Trip Planner

Search our weather history database for the weather conditions in past years. The results will help you decide how hot, cold, wet, or windy it might be!

Date:

Astronomy

Nov. 25, 2014 Rise Set
Actual Time 6:27 AM CST 4:52 PM CST
Civil Twilight 6:01 AM CST 5:17 PM CST
Nautical Twilight 5:32 AM CST 5:47 PM CST
Astronomical Twilight 5:03 AM CST 6:16 PM CST
Moon 9:15 AM CST (11/25) 8:13 PM CST (11/25)
Length of Visible Light 11h 16m
Length of Day
10h 24m
Waxing Crescent, 13% of the Moon is Illuminated
Nov 25
Waxing Crescent
Nov 29
First Quarter
Dec 6
Full
Dec 14
Last Quarter
Dec 21
New

Hourly Weather History & Observations

Time (CST) Temp. Dew Point Humidity Pressure Visibility Wind Dir Wind Speed Gust Speed Precip Events Conditions
12:56 AM 53.1 °F 37.9 °F 57% 30.06 in 10.0 mi North 12.7 mph 23.0 mph N/A   Overcast
1:56 AM 53.1 °F 37.0 °F 55% 30.07 in 10.0 mi North 15.0 mph - N/A   Overcast
2:56 AM 52.0 °F 36.0 °F 54% 30.07 in 10.0 mi North 12.7 mph - N/A   Mostly Cloudy
3:56 AM 51.1 °F 36.0 °F 56% 30.07 in 10.0 mi North 10.4 mph - N/A   Scattered Clouds
4:56 AM 50.0 °F 37.0 °F 61% 30.09 in 10.0 mi North 13.8 mph - N/A   Partly Cloudy
5:56 AM 50.0 °F 37.0 °F 61% 30.10 in 7.0 mi North 10.4 mph - N/A   Mostly Cloudy
6:56 AM 50.0 °F 37.0 °F 61% 30.13 in 7.0 mi North 6.9 mph - N/A   Mostly Cloudy
7:56 AM 51.1 °F 37.0 °F 59% 30.13 in 10.0 mi North 9.2 mph - N/A   Mostly Cloudy
8:56 AM 55.9 °F 37.0 °F 49% 30.14 in 10.0 mi NNE 12.7 mph - N/A   Mostly Cloudy
9:56 AM 55.9 °F 35.1 °F 45% 30.14 in 10.0 mi North 15.0 mph - N/A   Mostly Cloudy
10:56 AM 59.0 °F 33.1 °F 38% 30.12 in 10.0 mi North 15.0 mph - N/A   Mostly Cloudy
11:56 AM 59.0 °F 30.0 °F 33% 30.10 in 10.0 mi North 15.0 mph - N/A   Mostly Cloudy
12:56 PM 60.1 °F 28.0 °F 30% 30.07 in 10.0 mi North 12.7 mph - N/A   Mostly Cloudy
1:56 PM 59.0 °F 30.0 °F 33% 30.05 in 10.0 mi North 11.5 mph - N/A   Overcast
2:56 PM 57.0 °F 30.0 °F 36% 30.08 in 10.0 mi NNW 11.5 mph - N/A   Mostly Cloudy
3:56 PM 54.0 °F 35.1 °F 49% 30.09 in 10.0 mi NNW 8.1 mph - N/A   Overcast
4:56 PM 53.1 °F 36.0 °F 52% 30.12 in 10.0 mi NW 8.1 mph - N/A   Overcast
5:56 PM 53.1 °F 34.0 °F 48% 30.12 in 10.0 mi North 9.2 mph - N/A   Overcast
6:56 PM 52.0 °F 34.0 °F 50% 30.15 in 10.0 mi NNW 5.8 mph - N/A   Overcast
7:56 PM 51.1 °F 34.0 °F 52% 30.15 in 10.0 mi NNW 8.1 mph - N/A   Mostly Cloudy
8:56 PM 50.0 °F 34.0 °F 54% 30.16 in 10.0 mi NW 16.1 mph 25.3 mph N/A   Overcast
9:56 PM 48.9 °F 30.0 °F 48% 30.17 in 10.0 mi NW 8.1 mph - N/A   Overcast
10:56 PM 48.0 °F 30.0 °F 50% 30.16 in 10.0 mi NNW 9.2 mph 17.3 mph N/A   Overcast
11:56 PM 46.9 °F 30.0 °F 52% 30.16 in 10.0 mi NNW 8.1 mph - N/A   Clear